{"data":{"norad_id":58076,"epoch":"2026-05-24T23:33:19.623168Z","epoch_age_seconds":76609,"freshness":"FRESH","line1":"1 58076U 23160B   26144.98147712  .00004883  00000+0  18682-3 0  9994","line2":"2 58076  43.0033   7.0275 0000837 261.9876  98.0880 15.27583599144612","mean_motion":15.27583599,"eccentricity":8.37e-5,"inclination_deg":43.0033,"raan_deg":7.0275,"arg_perigee_deg":261.9876,"mean_anomaly_deg":98.088,"bstar":0.00018682,"rev_number":14461,"period_min":94.266526620387,"perigee_km":482.46403898585,"apogee_km":483.61259973431,"semimajor_km":6861.1753193601,"source":"CELESTRAK","updated_at":"2026-05-25T13:38:18.503771Z"}}